CW3728 Weather Reports


time (UTC)temp
F
wind
direction
speed
knots
gust
knots
rain 1hr
in
rain 24hr
in
rain mn
in
humidity
%
barometer
mb
20260506160030 78 360 0.0 0.0 0.00 0.00 0.00 86 1006.1
20260506155533 78 28 0.0 0.0 0.00 0.00 0.00 86 1006.1
20260506155036 77 26 0.0 0.0 0.00 0.00 0.00 86 1006.1
20260506154527 77 146 0.0 0.0 0.00 0.00 0.00 87 1005.8
20260506154032 77 146 0.0 0.0 0.00 0.00 0.00 88 1005.8
20260506153536 77 146 0.0 0.0 0.00 0.00 0.00 87 1005.8
20260506153036 77 146 0.0 0.0 0.00 0.00 0.00 87 1005.2
20260506152538 77 146 0.0 0.0 0.00 0.00 0.00 87 1005.2
20260506152101 77 146 0.0 0.0 0.00 0.00 0.00 87 1005.2
20260506151540 77 146 0.0 0.0 0.00 0.00 0.00 88 1005.1
20260506151055 76 146 0.0 0.0 0.00 0.00 0.00 88 1005.1
20260506150535 76 146 0.0 0.0 0.00 0.00 0.00 88 1005.1
20260506150039 76 146 0.0 0.0 0.00 0.00 0.00 88 1005.1
20260506145601 76 146 0.0 0.0 0.00 0.00 0.00 88 1005.1
20260506145051 76 146 0.0 0.0 0.00 0.00 0.00 88 1005.1
20260506144531 76 146 0.0 0.0 0.00 0.00 0.00 88 1005.1
20260506144027 76 146 0.0 0.0 0.00 0.00 0.00 88 1005.1
20260506143531 76 146 0.0 0.0 0.00 0.00 0.00 88 1005.1
20260506143034 76 146 0.0 0.0 0.00 0.00 0.00 88 1005.1
20260506142538 76 146 0.0 0.0 0.00 0.00 0.00 88 1005.1
20260506142041 76 146 0.0 0.0 0.00 0.00 0.00 87 1005.1
20260506141528 76 147 0.0 0.0 0.00 0.00 0.00 87 1004.6
20260506141044 76 147 0.0 0.0 0.00 0.00 0.00 88 1004.6
20260506140555 76 147 0.0 0.0 0.00 0.00 0.00 87 1004.6
20260506140040 76 360 0.0 0.0 0.00 0.00 0.00 88 1004.1
20260506135604 76 150 0.0 0.0 0.00 0.00 0.00 88 1004.1
20260506135027 76 150 0.0 0.0 0.00 0.00 0.00 88 1004.1
20260506134530 76 150 0.0 0.0 0.00 0.00 0.00 89 1003.9
20260506134036 76 150 0.0 0.0 0.00 0.00 0.00 88 1003.9
20260506133542 76 150 0.0 0.0 0.00 0.00 0.00 88 1003.9
20260506133044 76 150 0.0 0.0 0.00 0.00 0.00 88 1003.8
20260506132536 76 150 0.0 0.0 0.00 0.00 0.00 89 1003.8
20260506132039 75 150 0.0 0.0 0.00 0.00 0.00 89 1003.8
20260506131603 75 150 0.0 0.0 0.00 0.00 0.00 89 1003.6
20260506131056 75 145 0.0 0.0 0.00 0.00 0.00 89 1003.6
20260506130529 75 155 0.0 0.0 0.00 0.00 0.00 89 1003.6
20260506130021 75 155 0.0 0.0 0.00 0.00 0.00 90 1003.6
20260506125529 75 155 0.0 0.0 0.00 0.00 0.00 90 1003.6
20260506125035 75 155 0.0 0.0 0.00 0.00 0.00 90 1003.6
20260506124537 75 155 0.0 0.0 0.00 0.00 0.00 90 1003.6
20260506124040 75 155 0.0 0.0 0.00 0.00 0.00 90 1003.6
20260506123547 75 155 0.0 0.0 0.00 0.00 0.00 90 1003.6
20260506123046 75 155 0.0 0.0 0.00 0.00 0.00 90 1003.5
20260506122548 75 155 0.0 0.0 0.00 0.00 0.00 90 1003.5
20260506122030 75 155 0.0 0.0 0.00 0.00 0.00 90 1003.5
20260506121532 75 155 0.0 0.0 0.00 0.00 0.00 90 1003.6
20260506121046 75 155 0.0 0.0 0.00 0.00 0.00 90 1003.6
20260506120550 75 155 0.0 0.0 0.00 0.00 0.00 90 1003.6
20260506120032 75 155 0.0 0.0 0.00 0.00 0.00 90 1003.4
20260506115526 75 155 0.0 0.0 0.00 0.00 0.00 90 1003.4
20260506115029 75 155 0.0 0.0 0.00 0.00 0.00 90 1003.4
20260506114533 75 155 0.0 0.0 0.00 0.00 0.00 90 1003.4
20260506114029 75 155 0.0 0.0 0.00 0.00 0.00 90 1003.4
20260506113551 75 155 0.0 0.0 0.00 0.00 0.00 90 1003.4
20260506113033 75 155 0.0 0.0 0.00 0.00 0.00 90 1003.2
20260506112555 75 155 0.0 0.0 0.00 0.00 0.00 89 1003.2
20260506112057 75 155 0.0 0.0 0.00 0.00 0.00 89 1003.2
20260506111541 75 155 0.0 0.0 0.00 0.00 0.00 89 1003.4
20260506111055 75 155 0.0 0.0 0.00 0.00 0.00 89 1003.4
20260506110605 75 155 0.0 0.0 0.00 0.00 0.00 89 1003.4
20260506110046 75 155 0.0 0.0 0.00 0.00 0.00 89 1003.1
20260506105529 75 155 0.0 0.0 0.00 0.00 0.00 89 1003.1
20260506105035 75 155 0.0 0.0 0.00 0.00 0.00 89 1003.1
20260506104536 75 155 0.0 0.0 0.00 0.00 0.00 88 1003.1
20260506104100 75 155 0.0 0.0 0.00 0.00 0.00 88 1003.1
20260506103529 75 156 0.0 0.0 0.00 0.00 0.00 88 1003.1
20260506103039 75 155 0.0 0.0 0.00 0.00 0.00 88 1003.1
20260506102541 75 155 0.0 0.0 0.00 0.00 0.00 88 1003.1
20260506102104 75 155 0.0 0.0 0.00 0.00 0.00 88 1003.1
20260506101524 75 155 0.0 0.0 0.00 0.00 0.00 88 1003.0
20260506101042 75 154 0.0 0.0 0.00 0.00 0.00 88 1003.0
20260506100532 75 155 0.0 0.0 0.00 0.00 0.00 88 1003.0
20260506100035 75 217 0.0 0.0 0.00 0.00 0.00 88 1003.0
20260506095543 75 217 0.0 0.0 0.00 0.00 0.00 88 1003.0
20260506095046 75 240 0.0 0.0 0.00 0.00 0.00 88 1003.0
20260506094529 75 173 0.0 0.0 0.00 0.00 0.00 88 1003.0
20260506094035 76 149 0.0 0.0 0.00 0.00 0.00 88 1003.0
20260506093537 75 150 0.0 0.0 0.00 0.00 0.00 88 1003.0
20260506093033 76 150 0.0 0.0 0.00 0.00 0.00 88 1002.7
20260506092534 76 149 0.0 0.0 0.00 0.00 0.00 88 1002.7
20260506092030 76 149 0.0 0.0 0.00 0.00 0.00 88 1002.7
20260506091535 76 149 0.9 0.0 0.00 0.00 0.00 87 1002.9
20260506091049 76 148 0.9 0.0 0.00 0.00 0.00 87 1002.9
20260506090540 76 148 0.0 0.0 0.00 0.00 0.00 87 1002.9
20260506090043 76 191 0.0 0.0 0.00 0.00 0.00 87 1002.8
20260506085544 76 191 0.0 0.0 0.00 0.00 0.00 87 1002.8
20260506085047 76 195 0.9 0.0 0.00 0.00 0.00 87 1002.8
20260506084529 76 140 0.9 0.0 0.00 0.00 0.00 87 1002.6
20260506084040 76 137 0.9 0.0 0.00 0.00 0.00 87 1002.6
20260506083603 76 171 0.0 0.0 0.00 0.00 0.00 87 1002.6
20260506083038 76 185 0.0 0.0 0.00 0.00 0.00 87 1002.7
20260506082539 76 184 0.0 0.0 0.00 0.00 0.00 87 1002.7
20260506082103 76 186 0.9 0.0 0.00 0.00 0.00 87 1002.7
20260506081548 76 176 0.9 0.0 0.00 0.00 0.00 87 1003.0
20260506081044 76 179 0.0 0.0 0.00 0.00 0.00 87 1003.0
20260506080539 76 179 0.0 0.0 0.00 0.00 0.00 87 1003.0
20260506073043 76 171 0.9 0.0 0.00 0.00 0.00 86 1003.1
20260506072535 76 146 1.7 0.0 0.00 0.00 0.00 87 1003.1
20260506072021 76 139 1.7 0.0 0.00 0.00 0.00 86 1003.1
20260506071530 76 145 0.9 0.0 0.00 0.00 0.00 87 1003.4
20260506071037 76 82 0.9 0.0 0.00 0.00 0.00 87 1003.4
20260506070531 76 165 0.9 0.0 0.00 0.00 0.00 87 1003.4
20260506062023 76 167 0.9 0.0 0.00 0.00 0.00 86 1003.6
20260506061531 76 141 0.0 0.0 0.00 0.00 0.00 86 1003.6
20260506061052 76 141 0.9 0.0 0.00 0.00 0.00 86 1003.6
20260506060545 76 143 0.9 0.0 0.00 0.00 0.00 86 1003.6
20260506051102 77 148 1.7 0.0 0.00 0.00 0.00 85 1003.6
20260506050531 77 154 0.9 0.0 0.00 0.00 0.00 85 1003.6
20260506045028 77 167 0.9 0.0 0.00 0.00 0.00 85 1003.6
20260506044537 77 157 0.9 0.0 0.00 0.00 0.00 85 1003.6
20260506044043 77 163 1.7 0.0 0.00 0.00 0.00 84 1003.6
20260506043526 77 150 2.6 0.0 0.00 0.00 0.00 84 1003.6
20260506043052 77 113 1.7 0.0 0.00 0.00 0.00 84 1003.6
20260506042532 77 165 1.7 0.0 0.00 0.00 0.00 85 1003.6
20260506042031 77 120 0.9 0.0 0.00 0.00 0.00 84 1003.6
20260506041533 77 131 0.0 0.0 0.00 0.00 0.00 85 1003.4
20260506041046 78 131 0.9 0.0 0.00 0.00 0.00 85 1003.4
20260506040549 78 151 0.9 0.0 0.00 0.00 0.00 84 1003.4
20260506040033 78 152 0.9 0.0 0.00 0.00 0.00 84 1003.2
20260506035535 78 150 0.9 0.0 0.00 0.00 0.00 84 1003.2
20260506035038 78 149 0.9 0.0 0.00 0.00 0.00 84 1003.2
20260506034544 78 146 0.9 0.0 0.00 0.00 0.00 84 1003.0
20260506034027 78 134 0.0 0.0 0.00 0.00 0.00 84 1003.0
20260506033548 78 134 0.9 0.0 0.00 0.00 0.00 84 1003.0
20260506033030 78 134 0.9 0.0 0.00 0.00 0.00 84 1002.9
20260506032531 78 134 0.9 0.0 0.00 0.00 0.00 84 1002.9
20260506032046 78 134 1.7 0.0 0.00 0.00 0.00 84 1002.9
20260506031528 78 124 1.7 0.0 0.00 0.00 0.00 84 1002.5
20260506031040 78 125 0.9 0.0 0.00 0.00 0.00 84 1002.5
20260506030551 78 158 0.9 0.0 0.00 0.00 0.00 84 1002.5
20260506030024 78 150 0.9 0.0 0.00 0.00 0.00 83 1002.5
20260506025532 78 151 0.0 0.0 0.00 0.00 0.00 83 1002.5
20260506025039 78 139 0.0 0.0 0.00 0.00 0.00 83 1002.5
20260506024534 78 141 0.0 0.0 0.00 0.00 0.00 83 1002.2
20260506024036 79 141 0.0 0.0 0.00 0.00 0.00 83 1002.2
20260506023044 79 143 0.0 0.0 0.00 0.00 0.00 82 1002.0
20260506022526 79 142 0.9 0.0 0.00 0.00 0.00 82 1002.0
20260506022033 79 143 0.9 0.0 0.00 0.00 0.00 82 1002.0
20260506021539 78 143 0.0 0.0 0.00 0.00 0.00 82 1001.9
20260506020042 78 236 0.0 0.0 0.00 0.00 0.00 82 1001.6
20260506015607 78 236 0.0 0.0 0.00 0.00 0.00 82 1001.6
20260506015102 78 236 0.0 0.0 0.00 0.00 0.00 82 1001.6
20260506014603 78 236 0.0 0.0 0.00 0.00 0.00 82 1001.4
20260506014035 79 236 0.0 0.0 0.00 0.00 0.00 82 1001.4
20260506013536 79 236 0.0 0.0 0.00 0.00 0.00 81 1001.4
20260506013039 79 236 0.0 0.0 0.00 0.00 0.00 80 1001.4
20260506012601 80 236 0.0 0.0 0.00 0.00 0.00 80 1001.4
20260506012043 80 360 0.0 0.0 0.00 0.00 0.00 78 1001.4
20260506011545 81 236 0.0 0.0 0.00 0.00 0.00 77 1001.4
20260506011046 82 236 0.0 0.0 0.00 0.00 0.00 77 1001.4
20260506010541 82 360 0.0 0.0 0.00 0.00 0.00 76 1001.4
20260506010047 83 360 0.0 0.0 0.00 0.00 0.00 75 1001.4
20260506005540 83 236 0.0 0.0 0.00 0.00 0.00 76 1001.4
20260506005042 83 236 0.0 0.0 0.00 0.00 0.00 74 1001.4
20260506004604 83 236 0.0 0.0 0.00 0.00 0.00 74 1001.3
20260506004046 83 236 0.0 0.0 0.00 0.00 0.00 73 1001.3
20260506003527 83 236 0.0 0.0 0.00 0.00 0.00 73 1001.3
20260506003032 84 236 0.0 0.0 0.00 0.00 0.00 72 1001.2
20260506002543 84 360 0.0 0.0 0.00 0.00 0.00 71 1001.2
20260506002027 85 236 0.0 0.0 0.00 0.00 0.00 71 1001.2
20260506001533 85 234 0.0 0.0 0.00 0.00 0.00 71 1001.0
20260506001048 85 233 0.0 0.0 0.00 0.00 0.00 70 1001.0
20260506000542 86 234 0.0 0.0 0.00 0.00 0.00 68 1001.0
20260506000032 86 238 0.0 0.0 0.00 0.00 0.00 69 1000.9
20260505235537 86 238 0.0 0.0 0.00 0.00 0.00 68 1000.9
20260505235039 86 238 0.0 0.0 0.00 0.00 0.00 67 1000.9
20260505234544 86 238 0.0 0.0 0.00 0.00 0.00 67 1000.9
20260505234046 86 236 0.0 0.0 0.00 0.00 0.00 70 1000.9
20260505233527 86 236 0.0 0.0 0.00 0.00 0.00 69 1000.9
20260505233101 86 236 0.0 0.0 0.00 0.00 0.00 68 1000.9
20260505232544 86 242 0.0 0.0 0.00 0.00 0.00 68 1000.9
20260505232047 86 242 0.0 0.0 0.00 0.00 0.00 67 1000.9
20260505231548 86 360 0.9 0.0 0.00 0.00 0.00 68 1000.8
20260505231041 86 360 0.9 0.0 0.00 0.00 0.00 67 1000.8
20260505230533 86 360 1.7 0.0 0.00 0.00 0.00 66 1000.8
20260505230025 86 169 1.7 0.0 0.00 0.00 0.00 68 1000.7
20260505225530 86 158 1.7 0.0 0.00 0.00 0.00 67 1000.7
20260505225033 86 167 0.9 0.0 0.00 0.00 0.00 65 1000.7
20260505224532 87 360 0.9 0.0 0.00 0.00 0.00 66 1000.9
20260505224034 86 170 0.9 0.0 0.00 0.00 0.00 68 1000.9
20260505223540 86 149 0.9 0.0 0.00 0.00 0.00 66 1000.9
20260505223034 86 158 0.9 0.0 0.00 0.00 0.00 68 1000.9
20260505222535 86 155 0.9 0.0 0.00 0.00 0.00 67 1000.9
20260505222026 87 130 0.9 0.0 0.00 0.00 0.00 68 1000.9
20260505221528 87 89 0.9 0.0 0.00 0.00 0.00 68 1000.9
20260505221041 87 143 0.9 0.0 0.00 0.00 0.00 66 1000.9
20260505220542 86 360 0.0 0.0 0.00 0.00 0.00 69 1000.9
20260505220028 86 360 0.0 0.0 0.00 0.00 0.00 68 1001.0
20260505215530 86 229 0.0 0.0 0.00 0.00 0.00 66 1001.0
20260505215036 86 360 0.0 0.0 0.00 0.00 0.00 68 1001.0
20260505214526 86 220 0.9 0.0 0.00 0.00 0.00 65 1001.4
20260505214032 87 235 0.9 0.0 0.00 0.00 0.00 66 1001.4
20260505213540 86 155 1.7 0.0 0.00 0.00 0.00 69 1001.4
20260505213033 86 153 0.9 0.0 0.00 0.00 0.00 70 1001.5
20260505212536 85 120 0.9 0.0 0.00 0.00 0.00 70 1001.5
20260505212038 84 174 0.9 0.0 0.00 0.00 0.00 69 1001.5
20260505211545 84 360 1.7 0.0 0.00 0.00 0.00 69 1001.7
20260505211039 84 360 2.6 0.0 0.00 0.00 0.00 68 1001.7
20260505210540 85 360 1.7 0.0 0.00 0.00 0.00 66 1001.7
20260505210025 86 158 0.9 0.0 0.00 0.00 0.00 68 1002.0
20260505205532 85 360 1.7 0.0 0.00 0.00 0.00 71 1002.0
20260505205034 85 155 2.6 0.0 0.00 0.00 0.00 69 1002.0
20260505204535 85 134 1.7 0.0 0.00 0.00 0.00 69 1002.2
20260505204046 85 360 1.7 0.0 0.00 0.00 0.00 68 1002.2
20260505203535 85 360 1.7 0.0 0.00 0.00 0.00 67 1002.2
20260505203037 85 167 1.7 0.0 0.00 0.00 0.00 69 1002.4
20260505202540 85 360 1.7 0.0 0.00 0.00 0.00 69 1002.4
20260505202043 84 360 0.9 0.0 0.00 0.00 0.00 69 1002.4
20260505201525 85 360 1.7 0.0 0.00 0.00 0.00 69 1002.5
20260505201039 85 149 1.7 0.0 0.00 0.00 0.00 70 1002.5
20260505200529 85 360 0.9 0.0 0.00 0.00 0.00 68 1002.5
20260505200032 85 360 0.9 0.0 0.00 0.00 0.00 68 1002.6
20260505195543 85 169 0.0 0.0 0.00 0.00 0.00 69 1002.6
20260505195025 85 360 0.9 0.0 0.00 0.00 0.00 69 1002.6
20260505194538 84 360 0.9 0.0 0.00 0.00 0.00 69 1003.0
20260505194041 84 204 0.9 0.0 0.00 0.00 0.00 71 1003.0
20260505193526 83 360 0.9 0.0 0.00 0.00 0.00 71 1002.9
20260505193029 84 144 0.9 0.0 0.00 0.00 0.00 71 1003.0
20260505192531 83 360 0.9 0.0 0.00 0.00 0.00 72 1003.0
20260505192042 83 360 1.7 0.0 0.00 0.00 0.00 72 1003.0
20260505191545 83 360 1.7 0.0 0.00 0.00 0.00 71 1003.1
20260505191039 83 360 1.7 0.0 0.00 0.00 0.00 72 1003.1
20260505190533 82 360 1.7 0.0 0.00 0.00 0.00 72 1003.1
20260505190036 83 360 0.9 0.0 0.00 0.00 0.00 70 1003.4
20260505185538 83 360 0.9 0.0 0.00 0.00 0.00 72 1003.4
20260505185034 82 143 0.9 0.0 0.00 0.00 0.00 72 1003.4
20260505184536 82 360 0.9 0.0 0.00 0.00 0.00 73 1003.5
20260505184038 82 360 0.9 0.0 0.00 0.00 0.00 72 1003.5
20260505183543 82 360 1.7 0.0 0.00 0.00 0.00 74 1003.5
20260505183045 82 360 1.7 0.0 0.00 0.00 0.00 74 1003.5
20260505182526 82 360 0.9 0.0 0.00 0.00 0.00 73 1003.5
20260505182029 82 360 0.9 0.0 0.00 0.00 0.00 72 1003.5
20260505181549 81 360 1.7 0.0 0.00 0.00 0.00 74 1003.6
20260505181041 81 360 1.7 0.0 0.00 0.00 0.00 76 1003.6
20260505180532 81 360 1.7 0.0 0.00 0.00 0.00 72 1003.6
20260505180034 81 360 0.9 0.0 0.00 0.00 0.00 73 1003.8
20260505175604 81 360 0.0 0.0 0.00 0.00 0.00 75 1003.8
20260505175107 81 360 0.0 0.0 0.00 0.00 0.00 75 1003.8
20260505174541 81 176 0.0 0.0 0.00 0.00 0.00 76 1003.9
20260505174044 80 360 0.0 0.0 0.00 0.00 0.00 77 1003.9
20260505173525 80 167 0.9 0.0 0.00 0.00 0.00 76 1003.9
20260505173049 79 360 0.9 0.0 0.00 0.00 0.00 80 1004.0
20260505172529 79 169 0.9 0.0 0.00 0.00 0.00 80 1004.0
20260505172032 78 360 0.0 0.0 0.00 0.00 0.00 80 1004.0
20260505171537 78 164 0.0 0.0 0.00 0.00 0.00 81 1004.1
20260505171050 78 360 0.0 0.0 0.00 0.00 0.00 80 1004.1
20260505170543 77 360 0.0 0.0 0.00 0.00 0.00 82 1004.1
20260505170025 77 214 0.0 0.0 0.00 0.00 0.00 82 1004.2
20260505165537 76 219 0.0 0.0 0.00 0.00 0.00 82 1004.1
20260505165041 76 204 0.0 0.0 0.00 0.00 0.00 84 1004.1
20260505164542 76 225 0.9 0.0 0.00 0.00 0.00 84 1004.1
20260505164056 75 187 0.0 0.0 0.00 0.00 0.00 84 1004.1
20260505163537 75 209 0.0 0.0 0.00 0.00 0.00 85 1004.1
20260505163039 75 240 1.7 0.0 0.00 0.00 0.00 85 1004.0
20260505162546 75 240 1.7 0.0 0.00 0.00 0.00 85 1004.0
20260505162027 75 155 0.9 0.0 0.00 0.00 0.00 85 1004.0
20260505161541 75 233 0.9 0.0 0.00 0.00 0.00 86 1004.0
20260505161114 74 230 0.9 0.0 0.00 0.00 0.00 85 1004.0
20260505160531 74 198 0.0 0.0 0.00 0.00 0.00 86 1004.0